Location: Beneden-Haastrecht
(52.0012°N, 4.7557°E)
Time: 03:16:45
(UTC+00:00)

NOSS 3-4 (C) - Pass Details

Date: 24 October 2020
Orbit: 886 x 1326 km, 63.4° (Epoch: 06 November)

Event Time Altitude Azimuth Distance (km) Brightness Sun altitude
Rises 19:44:35 0° 313° (NW) 3,762 7.5 -30.6°
Reaches altitude 10° 19:47:05 10° 314° (NW) 2,865 6.7 -31.0°
Enters shadow 19:53:51 88° 345° (NNW) 1,140 3.7 -32.0°
